Epoch = 2000 Apr. 6.0 TT T = 2000 Apr. 17.95027 TT Peri. = 293.52286 e = 0.5278906 Node = 54.22483 2000.0 q = 2.4125604 AU Incl. = 6.93629 a = 5.1101719 AU n = 0.08531999 P = 11.55 years
m1 = 13.5 + 5 log d + 10.0 log r